Location: Kelowna
(49.8880°N, 119.4960°W)
Time: 01:12:53
(UTC-07:00)

TIGRISAT - Pass Details

Date: 29 April 2024
Orbit: 594 x 672 km, 97.7° (Epoch: 21 May)

Event Time Altitude Azimuth Distance (km) Brightness Sun altitude
Rises 03:15:32 0° 115° (ESE) 2,888 ? -18.4°
Reaches altitude 10° 03:18:36 10° 91° (E) 1,972 ? -18.1°
Maximum altitude 03:20:54 14° 58° (ENE) 1,691 ? -17.9°
Drops below altitude 10° 03:23:11 10° 25° (NNE) 1,959 ? -17.7°
Sets 03:26:12 0° 2° (N) 2,858 ? -17.4°
